{"data":{"norad_id":58320,"epoch":"2026-05-25T04:49:12.075744Z","epoch_age_seconds":54139,"freshness":"FRESH","line1":"1 58320U 23174BS  26145.20083421  .00020847  00000+0  39360-3 0  9997","line2":"2 58320  97.3829 233.1146 0005924 204.2952 155.8020 15.48461831142045","mean_motion":15.48461831,"eccentricity":0.0005924,"inclination_deg":97.3829,"raan_deg":233.1146,"arg_perigee_deg":204.2952,"mean_anomaly_deg":155.802,"bstar":0.0003936,"rev_number":14204,"period_min":92.995511492204,"perigee_km":417.19718025249,"apogee_km":425.25306449508,"semimajor_km":6799.3621223738,"source":"CELESTRAK","updated_at":"2026-05-25T13:38:13.301047Z"}}